Weather in Puerto Ordaz

Venezuela     8°13′14″N   62°41′08″W
temp.,
°C
wind,
m/s
gust,
m/s
humid.,
%
clouds,
%
prec.,
mm/h
press.,
hPa
HPBL,
m
17 april, sat
sat1723:00+26ene49698 0.0 1013637
02:00+25e497088 0.0 1012755
05:00+24ene38738 0.0 1013535
08:00+27e48568 0.0 10141107
11:00+34e473443 0.0 10142423
14:00+36ene562849 0.0 10102760
17:00+34ene653374 0.0 10092235
20:00+29ene595125 0.0 1012863
18 april, sun
sun1823:00+26ene4116757 0.0 1014691
02:00+24ene39755 0.0 1013639
05:00+23e27815 0.0 1014395
08:00+27ene376295 0.0 1015991
11:00+32ne5742100 0.0 10142355
14:00+36ne5725100 0.0 10103092
17:00+34ene6629100 0.0 10092048
20:00+28ene51055100 0.0 1012762
19 april, mon
mon1923:00+25ene4116798 0.0 1014656
02:00+24ene3975100 0.0 1013531
05:00+23ene3881100 0.0 1014374
08:00+26ene3868100 0.0 1016829
11:00+31ene4741100 0.0 10152263
14:00+35ne6731100 0.0 10112703
17:00+32ne674088 0.0 10111630
20:00+28ene5957100 0.0 1013902
20 april, tue
tue2023:00+25ene41068100 0.0 1015707
02:00+23ene3108076 0.0 1014600
05:00+22ene278893 0.0 1014347
08:00+26ene36645 0.0 1016774
11:00+33ne4530100 0.0 10152157
14:00+36nne452726 0.0 10102941
17:00+32ene664096 0.0 10101359
20:00+28ene495562 0.0 1012623
21 april, wed
wed2123:00+25ene410713 0.0 1014770
02:00+24ene388016 0.0 1013656
05:00+23ene248533 0.0 1014312
08:00+26e356714 0.0 1016848
11:00+33ne343640 0.0 10142340
14:00+37nne342686 0.0 10093350
17:00+32ne564098 0.0 10091156
20:00+28ene510574 0.0 1012822